COSMOS 1275 DEB, 39963

Orbit data source: Space-Track

COSMOS 1275 DEB, 39963 is space debris in LEO originally from a launch on Thu, 04 Jun 1981 UTC launched from the Plesetsk Missile And Space Complex (PKMTR). Debris objects in space refer to the collection of defunct objects orbiting the Earth. Examples of debris include non-operational satellites, rocket bodies, and fragments generated from explosions, collisions, or faulty payload assembly.

Loading next visibility...
Identifier
39963, 1981-053NZ
Orbit
LEO
Country
Flag of CISCIS
Related business
Manufacturer
Unknown
Mission
Spacecraft
Bus & Motor
Unknown
Mass
Unknown
Launch date (UTC)
1981-06-04 (45 years ago)
Launch vehicle
Unknown
Launch site
Plesetsk Missile And Space Complex (PKMTR)
Object type
Payload
Rocket body
Debris
Shape & HBR
Unknown shape, 0.1 m
Radar Cross Section
Small (<0.1 m²)

Expand to show TLE details & history
Last TLE update: 22 hours ago

TLE from 22 hours ago
0 COSMOS 1275 DEB
1 39963U 81053NZ  26104.15607798  .00000883  00000-0  96682-3 0  9996
2 39963  83.0060  64.9600 0128808 277.9532  80.7019 13.67960164590435
Epoch: 2026-04-14T03:44Z
TLE epoch observation values (Epoch: 2026-04-14T03:44:45.137Z)
Latitude
-0°
Longitude
166.43555°
Altitude
995.62 km
Speed
7.361 km/s
True Right ascension
04h 19m 50s
True Declination
0° 00' 00"
Sunlit
Object was in daylight at epoch
Visualization orbit readout
Latitude
Unknown
Longitude
Unknown
Altitude
Unknown
Speed
Unknown
Apparent Right ascension
Unknown
Apparent Declination
Unknown
Sunlit
N/A
Visualization observer readout
Local Sidereal Time
08:06:26
Azimuth
Unknown
Elevation
Unknown
Doppler factor
Unknown
Orbital elements
Apogee altitude
1,099.147 km
Perigee altitude
908.97 km
Semi-major axis
7,382.196 km
Eccentricity
0.01288
Inclination
83.006°
RAAN
64.96°
Arg. of periapsis
277.9532°
True anomaly
82.16218°
Mean anomaly
80.7019°
Eccentric anomaly
81.43168°
Mean motion
3.42188 °/min
Orbital period
105.21 mins
BSTAR
0.00096682
Loading maneuver chart data...
Computing Atmospheric mass density...
Loading historical data...
Loading historical data...
Loading historical data...
Loading historical data...
Loading historical data...
Loading historical data...
Loading historical data...

Documentation

Showing up to 5 results
|